STARLINK-11512, 62517

Orbit data source: Space-Track

STARLINK-11512, 62517 is a payload satellite owned by SpaceX/Seattle (US) in LEO that was launched on Wed, 08 Jan 2025 UTC via an FALCON 9 launch vehicle from the Air Force Eastern Test Range (AFETR). Payloads include a variety of satellites, spacecraft, and rockets equipped with specific instruments for various scientific and technological missions. These include communications satellites like Starlink; space stations such as the ISS; scientific satellites like the Hubble; Earth observation satellites from companies like Planet Labs, Umbra, and HawkEye 360; GPS; miniature CubeSats for education and research; and military/defense satellites.

Loading next visibility...
STARLINK-11512 details
Identifier
62517, 2025-004G
Orbit
LEO
Last TLE update11 hours ago
Origin
Flag of USSpaceX/Seattle (US)
ManufacturerSpaceX/Seattle
MissionOperational spacecraft
Bus & MotorSTARLINK V2M, Unknown motor
Mass730 kg wet, ~700 kg dry
Launch date (UTC)
2025-01-08 (1 month ago)
Launch vehicle
FALCON 9
Launch site
Air Force Eastern Test Range (AFETR)
Object type
Payload
Rocket body
Debris
Shape & HBRUnknown
Radar Cross SectionLarge (>1 m²)

Expand to show TLE details & history

TLE from 11 hours ago
0 STARLINK-11512
1 62517U 25004G   25035.81605185  .00002280  00000-0  15975-4 0  9994
2 62517  42.9992 309.8633 0002025 265.8131  94.2507 15.77845918  5530
Epoch: 2025-02-04T19:35Z
Definitive object data (Epoch: 2025-02-04T19:35:06.879Z)
Latitude-0.00009°
Longitude-119.13138°
Altitude336.416 km
Speed7.709 km/s
True Right ascension20h 39m 27s
True Declination0° 00' 00"
Sunlit
Object was in daylight at TLE epoch
Visualization TLE readout
Latitude5.20606°
Longitude52.40834°
Altitude335.942 km
Speed7.709 km/s
Apparent Right ascension06h 03m 32s
Apparent Declination-57° 14' 53"
Sunlit
Object is in full shadow
Visualization observer readout
Local Sidereal Time08:59:03
Azimuth202.726° SW
Elevation-13.919°
Doppler factor1
Orbital elements
Apogee altitude339.893 km
Perigee altitude337.172 km
Semi-major axis6,716.67 km
Eccentricity0.0002025
Inclination42.9992°
RAAN309.8633°
Arg. of periapsis265.8131°
True anomaly94.27384°
Mean anomaly94.2507°
Eccentric anomaly94.26227°
Mean motion3.94287 °/min
BSTAR0.000015975
Orbital period91.3 mins
Loading maneuver chart data...
Loading historical data...
Loading historical data...
Loading historical data...
Loading historical data...
Loading historical data...
Loading historical data...
Loading historical data...

STARLINK-11512 Visibility forecast

Observer location: undefined°, undefined

Span
Click to sort rows by Start time (UTC) header in descending order
Start Az.
Max El. time (UTC)
Max El. Az.
Max El.
End time (UTC)
End Az.
4 mins2025-02-05 21:38:47.795Z220.544° SW2025-02-05 21:40:47.795Z134.457° SE33.951°2025-02-05 21:42:47.795Z83.251° E
4 mins2025-02-05 23:14:47.795Z285.832° WNW2025-02-05 23:15:47.795Z320.44° NNW35.145°2025-02-05 23:18:47.795Z67.732° E
4 mins2025-02-06 00:50:47.795Z305.729° NW2025-02-06 00:51:47.795Z345.62° N35.675°2025-02-06 00:54:47.795Z85.332° E
|